Simultaneous Nadir Overpasses (SNOs) Predictions

Prediction of SNOs between NOAA-20 and METOP-B Satellite Orbit:

Table of predicted SNOs for the next 14.0 days since TLE Epoch: 12/21/2024
Index Date (NOAA-20) Time (NOAA-20) Lat,Lon (NOAA-20) SZA (NOAA-20 ) Date (METOP-B) Time (METOP-B) Lat,Lon (METOP-B) SZA (METOP-B ) Distance(km) Time Diff (sec)
1 12/22/2024 19:06:51 -74.36, 61.10 81.99 12/22/2024 19:07:57 -74.35, 64.23 82.15 93.92 66
2 12/22/2024 19:57:33 74.18,-131.13 97.82 12/22/2024 19:58:41 74.16,-128.91 97.68 67.37 68
3 12/22/2024 20:48:15 -74.07, 36.47 82.32 12/22/2024 20:49:25 -74.06, 38.16 82.42 51.65 70
4 12/22/2024 21:38:57 73.89,-155.78 97.49 12/22/2024 21:40:09 73.86,-154.97 97.42 24.96 72
5 12/22/2024 22:29:40 -73.82, 11.69 82.59 12/22/2024 22:30:53 -73.76, 12.11 82.68 14.64 73
6 12/22/2024 23:20:23 73.69, 179.32 97.27 12/22/2024 23:21:34 73.72, 179.34 97.28 3.25 71
7 12/23/2024 00:11:08 -73.72, -13.44 82.70 12/23/2024 00:12:16 -73.71, -13.34 82.72 3.36 68
8 12/23/2024 01:01:53 73.69, 153.95 97.27 12/23/2024 01:02:57 73.67, 153.89 97.24 2.92 64
9 12/23/2024 01:52:37 -73.67, -38.70 82.75 12/23/2024 01:53:39 -73.66, -38.79 82.77 3.05 62
10 12/23/2024 02:43:23 73.69, 128.58 97.27 12/23/2024 02:44:19 73.67, 128.55 97.24 2.06 56
11 12/23/2024 03:34:07 -73.67, -64.07 82.75 12/23/2024 03:35:01 -73.67, -64.13 82.77 1.92 54
12 12/23/2024 04:24:53 73.68, 103.20 97.27 12/23/2024 04:25:41 73.67, 103.21 97.24 1.59 48
13 12/23/2024 05:15:37 -73.67, -89.45 82.76 12/23/2024 05:16:23 -73.67, -89.47 82.77 0.79 46
14 12/23/2024 06:06:23 73.68, 77.83 97.26 12/23/2024 06:07:03 73.67, 77.87 97.24 1.82 40
15 12/23/2024 06:57:07 -73.67,-114.82 82.76 12/23/2024 06:57:45 -73.67,-114.81 82.76 0.34 38
16 12/23/2024 07:47:53 73.68, 52.46 97.26 12/23/2024 07:48:25 73.67, 52.53 97.24 2.58 32
17 12/23/2024 08:38:37 -73.67,-140.19 82.76 12/23/2024 08:39:07 -73.67,-140.15 82.76 1.47 30
18 12/23/2024 09:29:23 73.68, 27.08 97.26 12/23/2024 09:29:47 73.68, 27.19 97.24 3.54 24
19 12/23/2024 10:20:07 -73.67,-165.57 82.76 12/23/2024 10:20:29 -73.67,-165.49 82.76 2.60 22
20 12/23/2024 11:10:52 73.63, 1.83 97.21 12/23/2024 11:11:10 73.63, 1.74 97.20 2.78 18
21 12/23/2024 12:01:36 -73.62, 169.18 82.82 12/23/2024 12:01:52 -73.63, 169.06 82.81 3.69 16
22 12/23/2024 12:52:22 73.63, -23.55 97.20 12/23/2024 12:52:32 73.63, -23.60 97.20 1.66 10
23 12/23/2024 13:43:06 -73.62, 143.80 82.82 12/23/2024 13:43:14 -73.63, 143.72 82.81 2.73 8
24 12/23/2024 14:33:52 73.63, -48.92 97.20 12/23/2024 14:33:54 73.63, -48.94 97.20 0.54 2
25 12/23/2024 15:24:36 -73.62, 118.43 82.82 12/23/2024 15:24:36 -73.63, 118.38 82.80 1.97 0
26 12/23/2024 16:15:22 73.63, -74.30 97.20 12/23/2024 16:15:16 73.63, -74.28 97.20 0.58 6
27 12/23/2024 17:06:06 -73.62, 93.06 82.82 12/23/2024 17:05:58 -73.63, 93.05 82.80 1.67 8
28 12/23/2024 17:56:52 73.63, -99.67 97.20 12/23/2024 17:56:38 73.63, -99.62 97.20 1.71 14
29 12/23/2024 18:47:36 -73.62, 67.68 82.82 12/23/2024 18:47:20 -73.63, 67.71 82.80 2.07 16
30 12/23/2024 19:38:22 73.63,-125.04 97.20 12/23/2024 19:38:00 73.64,-124.95 97.20 2.83 22
31 12/23/2024 20:29:05 -73.61, 42.31 82.82 12/23/2024 20:28:41 -73.63, 42.37 82.80 2.88 24
32 12/23/2024 21:19:50 73.58,-150.30 97.14 12/23/2024 21:19:22 73.59,-150.41 97.16 3.46 28
33 12/23/2024 22:10:35 -73.61, 16.93 82.83 12/23/2024 22:10:04 -73.59, 16.92 82.85 3.17 31
34 12/23/2024 23:01:20 73.58,-175.67 97.14 12/23/2024 23:00:44 73.59,-175.75 97.16 2.49 36
35 12/23/2024 23:52:05 -73.61, -8.44 82.83 12/23/2024 23:51:26 -73.59, -8.42 82.85 2.90 39
36 12/24/2024 00:42:50 73.58, 158.95 97.14 12/24/2024 00:42:06 73.59, 158.91 97.16 1.71 44
37 12/24/2024 01:33:35 -73.61, -33.81 82.83 12/24/2024 01:32:48 -73.59, -33.76 82.85 3.05 47
38 12/24/2024 02:24:20 73.58, 133.58 97.14 12/24/2024 02:23:28 73.59, 133.58 97.16 1.48 52
39 12/24/2024 03:15:04 -73.56, -59.07 82.89 12/24/2024 03:14:10 -73.59, -59.10 82.85 3.31 54
40 12/24/2024 04:05:50 73.58, 108.20 97.14 12/24/2024 04:04:50 73.59, 108.24 97.16 1.99 60
41 12/24/2024 04:56:34 -73.56, -84.44 82.89 12/24/2024 04:55:32 -73.59, -84.44 82.84 3.43 62
42 12/24/2024 05:47:20 73.58, 82.83 97.13 12/24/2024 05:46:12 73.59, 82.90 97.16 2.87 68
43 12/24/2024 06:38:04 -73.56,-109.82 82.89 12/24/2024 06:36:55 -73.54,-109.89 82.89 2.97 69
44 12/24/2024 07:28:49 73.53, 57.57 97.08 12/24/2024 07:27:35 73.55, 57.45 97.12 4.52 74
45 12/24/2024 08:19:32 -73.46,-134.96 83.00 12/24/2024 08:18:18 -73.50,-135.34 82.93 12.60 74
46 12/24/2024 09:10:14 73.28, 32.76 96.80 12/24/2024 09:09:03 73.25, 31.44 96.85 42.69 71
47 12/24/2024 10:00:57 -73.21,-159.78 83.27 12/24/2024 09:59:46 -73.20,-161.35 83.20 50.41 71
48 12/24/2024 10:51:38 72.97, 8.05 96.47 12/24/2024 10:50:31 72.94, 5.45 96.58 84.83 67
49 12/24/2024 11:42:20 -72.86, 175.61 83.66 12/24/2024 11:41:14 -72.90, 172.67 83.46 96.09 66



Historial Predications of SNOs between NOAA-20 and METOP-B
